TimeCST,TemperatureF,Dew PointF,Humidity,Sea Level PressureIn,VisibilityMPH,Wind Direction,Wind SpeedMPH,Gust SpeedMPH,PrecipitationIn,Events,Conditions,WindDirDegrees,DateUTC
12:55 AM,-9999,-9999,N/A,30.04,-9999.0,North,-9999.0,-,N/A,,Unknown,0,2013-02-21 06:55:00
1:55 AM,-9999,-9999,N/A,30.01,-9999.0,North,-9999.0,-,N/A,,Unknown,0,2013-02-21 07:55:00
2:55 AM,-9999,-9999,N/A,29.99,-9999.0,North,-9999.0,-,N/A,,Unknown,0,2013-02-21 08:55:00
3:55 AM,-9999,-9999,N/A,29.96,-9999.0,North,-9999.0,-,N/A,,Unknown,0,2013-02-21 09:55:00
4:55 AM,-9999,-9999,N/A,29.96,-9999.0,North,-9999.0,-,N/A,,Unknown,0,2013-02-21 10:55:00
5:55 AM,-9999,-9999,N/A,29.96,-9999.0,North,-9999.0,-,N/A,,Unknown,0,2013-02-21 11:55:00
6:15 AM,60.8,50.0,68,29.96,7.0,SSE,11.5,17.3,N/A,,Overcast,160,2013-02-21 12:15:00
6:55 AM,60.6,48.7,65,29.98,10.0,SSE,11.5,17.3,N/A,,Overcast,160,2013-02-21 12:55:00
7:55 AM,61.3,51.4,70,29.99,10.0,SSE,11.5,17.3,N/A,,Overcast,160,2013-02-21 13:55:00
8:55 AM,62.6,52.2,69,30.00,10.0,South,8.1,17.3,N/A,,Overcast,170,2013-02-21 14:55:00
9:55 AM,64.9,53.6,67,29.99,10.0,South,8.1,17.3,N/A,,Overcast,180,2013-02-21 15:55:00
10:55 AM,65.1,55.9,72,29.96,10.0,South,11.5,-,N/A,,Overcast,180,2013-02-21 16:55:00
11:55 AM,66.6,58.1,74,29.94,10.0,South,11.5,20.7,N/A,,Overcast,180,2013-02-21 17:55:00
12:55 PM,66.4,58.6,76,29.90,7.0,South,11.5,20.7,N/A,,Overcast,180,2013-02-21 18:55:00
1:55 PM,69.3,62.1,78,29.87,7.0,South,11.5,20.7,N/A,,Overcast,180,2013-02-21 19:55:00
2:55 PM,71.2,63.0,75,29.83,7.0,SSE,9.2,19.6,N/A,,Mostly Cloudy,160,2013-02-21 20:55:00
3:55 PM,68.5,63.5,84,29.82,10.0,South,6.9,20.7,N/A,,Overcast,180,2013-02-21 21:55:00
4:55 PM,71.8,63.9,76,29.83,8.0,South,10.4,23.0,N/A,,Mostly Cloudy,170,2013-02-21 22:55:00
5:55 PM,70.2,63.1,78,29.85,7.0,South,12.7,26.5,N/A,,Overcast,170,2013-02-21 23:55:00
6:55 PM,70.0,63.9,81,29.86,7.0,South,10.4,19.6,N/A,,Overcast,180,2013-02-22 00:55:00
7:55 PM,67.6,60.1,77,29.88,7.0,SSE,9.2,-,N/A,,Overcast,160,2013-02-22 01:55:00
8:20 PM,66.2,59.0,78,29.87,7.0,South,9.2,-,N/A,,Overcast,170,2013-02-22 02:20:00
9:55 PM,66.0,59.5,80,29.90,7.0,South,10.4,-,N/A,,Overcast,190,2013-02-22 03:55:00
10:55 PM,68.7,58.5,70,29.90,7.0,South,4.6,-,N/A,,Overcast,190,2013-02-22 04:55:00
11:02 PM,-9999,-9999,N/A,29.90,-9999.0,North,-9999.0,-,N/A,,Unknown,0,2013-02-22 05:02:00
11:55 PM,-9999,-9999,N/A,29.91,-9999.0,North,-9999.0,-,N/A,,Unknown,0,2013-02-22 05:55:00